This is the latest recevied weather packets stored in our database for station/object KA8OAD-10. If no packets are shown the sender has not sent any weather packets the latest 10 day(s).
| Time | Temp. | Humidity | Pressure | Rain* | Wind** | Luminosity | Snow |
|---|---|---|---|---|---|---|---|
| 1787486162 | 16.11° C | 94% | 1011.4 hPa | 0 mm | - | 18 W/m² | - |
| 1787485561 | 15.56° C | 93% | 1011.3 hPa | 0 mm | - | 16 W/m² | - |
| 1787485265 | 15.56° C | 93% | 1011.2 hPa | 0 mm | - | 16 W/m² | - |
| 1787484963 | 15.56° C | 93% | 1011.1 hPa | 0 mm | - | 26 W/m² | - |
| 1787484664 | 15.56° C | 93% | 1011 hPa | 0 mm | - | 12 W/m² | - |
| 1787483461 | 15.56° C | 93% | 1011 hPa | 0 mm | - | 11 W/m² | - |
| 1787483164 | 15.56° C | 93% | 1011.1 hPa | 0 mm | - | 18 W/m² | - |
| 1787482864 | 15.56° C | 93% | 1011 hPa | 0 mm | - | 12 W/m² | - |
| 1787482563 | 15.56° C | 93% | 1011 hPa | 0 mm | - | 0 W/m² | - |
| 1787481361 | 15.56° C | 93% | 1010.7 hPa | 0 mm | - | 0 W/m² | - |
| 1787480764 | 15.56° C | 93% | 1010.6 hPa | 0 mm | - | 0 W/m² | - |
| 1787479561 | 16.11° C | 93% | 1010.4 hPa | 0 mm | - | 0 W/m² | - |
| 1787478964 | 16.11° C | 93% | 1010.5 hPa | 0 mm | - | 0 W/m² | - |
| 1787478664 | 16.11° C | 93% | 1010.3 hPa | 0 mm | - | 0 W/m² | - |
| 1787478363 | 16.11° C | 93% | 1010.4 hPa | 0 mm | - | 0 W/m² | - |
| 1787477761 | 16.11° C | 93% | 1010.3 hPa | 0 mm | - | 0 W/m² | - |
| 1787477160 | 16.11° C | 93% | 1010.3 hPa | 0 mm | - | 0 W/m² | - |
| 1787476563 | 16.11° C | 93% | 1010.2 hPa | 0 mm | - | 0 W/m² | - |
| 1787475962 | 15.56° C | 93% | 1010 hPa | 0 mm | - | 0 W/m² | - |
| 1787475361 | 15.56° C | 93% | 1010.1 hPa | 0 mm | - | 0 W/m² | - |
| 1787475065 | 15.56° C | 93% | 1010.1 hPa | 0 mm | - | 0 W/m² | - |
| 1787474764 | 15.56° C | 93% | 1009.9 hPa | 0 mm | - | 0 W/m² | - |
| 1787474162 | 15.56° C | 93% | 1009.7 hPa | 0 mm | - | 0 W/m² | - |
| 1787473562 | 15.56° C | 92% | 1009.7 hPa | 0 mm | - | 0 W/m² | - |
| 1787472364 | 16.11° C | 92% | 1009.7 hPa | 0 mm | - | 0 W/m² | - |
* Rain latest hour (hover to see other rain measurements)
** Current wind speed in m/s (hover to see current wind gust speed)